TimeCEST,TemperatureF,Dew PointF,Humidity,Sea Level PressureIn,VisibilityMPH,Wind Direction,Wind SpeedMPH,Gust SpeedMPH,PrecipitationIn,Events,Conditions,WindDirDegrees,DateUTC
12:20 AM,35.6,35.6,100,29.89,6.2,SE,2.3,-,N/A,,Mostly Cloudy,130,2012-10-08 22:20:00
1:20 AM,33.8,33.8,100,29.86,6.2,SE,2.3,-,N/A,,Scattered Clouds,140,2012-10-08 23:20:00
2:20 AM,33.8,33.8,100,29.83,6.2,SE,3.5,-,N/A,Fog,Shallow Fog,130,2012-10-09 00:20:00
3:20 AM,32.0,32.0,100,29.80,0.3,Variable,2.3,-,N/A,Fog,Fog,0,2012-10-09 01:20:00
3:50 AM,32.0,32.0,100,29.80,1.0,SE,2.3,-,N/A,Fog,Fog,140,2012-10-09 01:50:00
4:20 AM,32.0,32.0,100,29.80,1.6,ESE,2.3,-,N/A,Fog,Patches of Fog,120,2012-10-09 02:20:00
5:20 AM,30.2,30.2,100,29.77,1.2,Variable,1.2,-,N/A,Fog,Patches of Fog,0,2012-10-09 03:20:00
6:20 AM,28.4,28.4,100,29.77,1.2,SSE,1.2,-,N/A,Fog,Patches of Fog,150,2012-10-09 04:20:00
7:20 AM,28.4,28.4,100,29.77,1.9,WSW,2.3,-,N/A,Fog,Patches of Fog,240,2012-10-09 05:20:00
8:00 AM,30.2,30.2,100,29.77,2.5,West,2.3,-,N/A,Fog,Fog,260,2012-10-09 06:00:00
8:20 AM,32.0,32.0,100,29.80,2.8,WSW,3.5,-,N/A,,Scattered Clouds,240,2012-10-09 06:20:00
9:20 AM,39.2,39.2,100,29.80,6.2,West,5.8,-,N/A,,Scattered Clouds,260,2012-10-09 07:20:00
10:20 AM,46.4,41.0,81,29.80,6.2,West,8.1,-,N/A,,Scattered Clouds,270,2012-10-09 08:20:00
11:20 AM,50.0,42.8,76,29.83,6.2,West,10.4,-,N/A,,Mostly Cloudy,270,2012-10-09 09:20:00
12:20 PM,51.8,41.0,67,29.83,6.2,WNW,10.4,-,N/A,,Partly Cloudy,300,2012-10-09 10:20:00
1:20 PM,53.6,39.2,58,29.83,6.2,WNW,12.7,-,N/A,,Scattered Clouds,300,2012-10-09 11:20:00
2:20 PM,53.6,37.4,54,29.83,6.2,WNW,9.2,-,N/A,,Scattered Clouds,300,2012-10-09 12:20:00
3:20 PM,55.4,35.6,47,29.83,6.2,WNW,12.7,-,N/A,,Scattered Clouds,290,2012-10-09 13:20:00
4:20 PM,53.6,33.8,47,29.83,6.2,West,13.8,-,N/A,,Scattered Clouds,280,2012-10-09 14:20:00
5:20 PM,53.6,35.6,51,29.86,6.2,West,11.5,-,N/A,,Mostly Cloudy,280,2012-10-09 15:20:00
6:20 PM,50.0,37.4,62,29.86,6.2,WNW,8.1,-,N/A,,Scattered Clouds,300,2012-10-09 16:20:00
6:30 PM,50.0,39.2,66,29.89,6.2,WNW,8.1,-,N/A,,Scattered Clouds,300,2012-10-09 16:30:00
7:20 PM,48.2,37.4,66,29.89,6.2,West,8.1,-,N/A,,Partly Cloudy,280,2012-10-09 17:20:00
8:20 PM,46.4,39.2,76,29.92,6.2,WNW,6.9,-,N/A,,Partly Cloudy,290,2012-10-09 18:20:00
9:20 PM,44.6,39.2,81,29.92,6.2,West,4.6,-,N/A,,Unknown,270,2012-10-09 19:20:00
10:20 PM,44.6,39.2,81,29.92,6.2,West,6.9,-,N/A,,Unknown,270,2012-10-09 20:20:00
11:20 PM,42.8,39.2,87,29.95,6.2,West,5.8,-,N/A,,Unknown,260,2012-10-09 21:20:00